Time,TemperatureF,DewpointF,PressureIn,WindDirection,WindDirectionDegrees,WindSpeedMPH,WindSpeedGustMPH,Humidity,HourlyPrecipIn,Conditions,Clouds,dailyrainin,SoftwareType,DateUTC
2013-06-21 00:00:00,72.6,71.7,30.08,SSE,159,0.0,0.0,97,0.00,,,0.47,Wunderground v.1.15,2013-06-21 04:00:00,
2013-06-21 00:05:00,72.5,71.6,30.08,SSE,159,0.0,0.0,97,0.00,,,0.00,Wunderground v.1.15,2013-06-21 04:05:00,
2013-06-21 00:10:00,72.5,71.6,30.08,SSE,159,0.0,0.0,97,0.00,,,0.00,Wunderground v.1.15,2013-06-21 04:10:00,
2013-06-21 00:15:00,72.5,71.6,30.09,SSE,159,0.0,0.0,97,0.00,,,0.00,Wunderground v.1.15,2013-06-21 04:15:00,
2013-06-21 00:25:00,72.4,71.5,30.08,SSE,159,0.0,0.0,97,0.00,,,0.00,Wunderground v.1.15,2013-06-21 04:25:00,
2013-06-21 00:30:00,72.3,71.4,30.08,SSE,159,0.0,0.0,97,0.00,,,0.00,Wunderground v.1.15,2013-06-21 04:30:00,
2013-06-21 00:40:00,72.2,71.3,30.09,SSE,159,0.0,0.0,97,0.00,,,0.00,Wunderground v.1.15,2013-06-21 04:40:00,
2013-06-21 00:45:00,72.1,71.2,30.08,SSE,159,0.0,0.0,97,0.00,,,0.00,Wunderground v.1.15,2013-06-21 04:45:00,
2013-06-21 00:55:00,72.1,71.2,30.08,SSE,159,0.0,0.0,97,0.00,,,0.00,Wunderground v.1.15,2013-06-21 04:55:00,
2013-06-21 01:00:00,72.2,71.3,30.08,SSE,159,0.0,0.0,97,0.00,,,0.00,Wunderground v.1.15,2013-06-21 05:00:00,
2013-06-21 01:10:00,72.1,71.2,30.08,SSE,159,0.0,0.0,97,0.00,,,0.00,Wunderground v.1.15,2013-06-21 05:10:00,
2013-06-21 01:15:00,72.0,71.1,30.08,SSE,159,0.0,0.0,97,0.00,,,0.00,Wunderground v.1.15,2013-06-21 05:15:00,
2013-06-21 01:25:00,71.9,71.0,30.08,SSE,159,0.0,0.0,97,0.00,,,0.00,Wunderground v.1.15,2013-06-21 05:25:00,
2013-06-21 01:30:00,71.9,71.3,30.07,SSE,159,0.0,0.0,98,0.00,,,0.00,Wunderground v.1.15,2013-06-21 05:30:00,
2013-06-21 01:40:00,72.0,71.4,30.07,SSE,159,0.0,0.0,98,0.00,,,0.00,Wunderground v.1.15,2013-06-21 05:40:00,
2013-06-21 01:50:00,72.1,71.5,30.07,SSE,159,0.0,0.0,98,0.00,,,0.00,Wunderground v.1.15,2013-06-21 05:50:00,
2013-06-21 01:55:00,72.0,71.4,30.07,SSE,159,0.0,0.0,98,0.00,,,0.00,Wunderground v.1.15,2013-06-21 05:55:00,
2013-06-21 02:00:00,71.9,71.3,30.07,SSE,159,0.0,0.0,98,0.00,,,0.00,Wunderground v.1.15,2013-06-21 06:00:00,
2013-06-21 02:10:00,71.9,71.3,30.07,SSE,159,0.0,0.0,98,0.00,,,0.00,Wunderground v.1.15,2013-06-21 06:10:00,
2013-06-21 02:15:00,72.0,71.4,30.07,SSE,159,0.0,0.0,98,0.00,,,0.00,Wunderground v.1.15,2013-06-21 06:15:00,
2013-06-21 02:25:00,72.0,71.4,30.07,SSE,159,0.0,0.0,98,0.00,,,0.00,Wunderground v.1.15,2013-06-21 06:25:00,
2013-06-21 02:30:00,71.9,71.3,30.07,SSE,159,0.0,0.0,98,0.00,,,0.00,Wunderground v.1.15,2013-06-21 06:30:00,
2013-06-21 02:35:00,71.9,71.3,30.07,SSE,159,0.0,0.0,98,0.00,,,0.00,Wunderground v.1.15,2013-06-21 06:35:00,
2013-06-21 02:45:00,71.8,71.2,30.06,SSE,159,0.0,0.0,98,0.00,,,0.00,Wunderground v.1.15,2013-06-21 06:45:00,
2013-06-21 02:50:00,71.9,71.3,30.06,SSE,159,0.0,0.0,98,0.00,,,0.00,Wunderground v.1.15,2013-06-21 06:50:00,
2013-06-21 03:00:00,71.8,71.2,30.06,SSE,159,0.0,0.0,98,0.00,,,0.00,Wunderground v.1.15,2013-06-21 07:00:00,
2013-06-21 03:05:00,71.7,71.1,30.06,SSE,159,0.0,0.0,98,0.00,,,0.00,Wunderground v.1.15,2013-06-21 07:05:00,
2013-06-21 03:15:00,71.6,71.0,30.06,SSE,159,0.0,0.0,98,0.00,,,0.00,Wunderground v.1.15,2013-06-21 07:15:00,
2013-06-21 03:20:00,71.6,71.0,30.06,SSE,159,0.0,0.0,98,0.00,,,0.00,Wunderground v.1.15,2013-06-21 07:20:00,
2013-06-21 03:25:00,71.6,71.0,30.06,SSE,159,0.0,0.0,98,0.00,,,0.00,Wunderground v.1.15,2013-06-21 07:25:00,
2013-06-21 03:35:00,71.6,71.0,30.06,SSE,159,0.0,0.0,98,0.00,,,0.00,Wunderground v.1.15,2013-06-21 07:35:00,
2013-06-21 03:40:00,71.5,70.9,30.05,SSE,159,0.0,0.0,98,0.00,,,0.00,Wunderground v.1.15,2013-06-21 07:40:00,
2013-06-21 03:50:00,71.5,70.9,30.05,SSE,159,0.0,0.0,98,0.00,,,0.00,Wunderground v.1.15,2013-06-21 07:50:00,
2013-06-21 03:55:00,71.4,70.8,30.05,SSE,159,0.0,0.0,98,0.00,,,0.00,Wunderground v.1.15,2013-06-21 07:55:00,
2013-06-21 04:00:00,71.4,70.8,30.05,SSE,159,0.0,0.0,98,0.00,,,0.00,Wunderground v.1.15,2013-06-21 08:00:00,
2013-06-21 04:10:00,71.3,70.7,30.05,SSE,157,0.0,0.0,98,0.00,,,0.00,Wunderground v.1.15,2013-06-21 08:10:00,
2013-06-21 04:20:00,71.1,70.5,30.05,SSE,157,0.0,0.0,98,0.00,,,0.00,Wunderground v.1.15,2013-06-21 08:20:00,
2013-06-21 04:25:00,71.0,70.4,30.05,SSE,157,0.0,0.0,98,0.00,,,0.00,Wunderground v.1.15,2013-06-21 08:25:00,
2013-06-21 04:30:00,71.0,70.4,30.05,SSE,157,0.0,0.0,98,0.00,,,0.00,Wunderground v.1.15,2013-06-21 08:30:00,
2013-06-21 04:40:00,70.8,70.2,30.05,SSE,157,0.0,0.0,98,0.00,,,0.00,Wunderground v.1.15,2013-06-21 08:40:00,
2013-06-21 04:45:00,70.7,70.1,30.04,SSE,157,0.0,0.0,98,0.00,,,0.00,Wunderground v.1.15,2013-06-21 08:45:00,
2013-06-21 04:55:00,70.6,70.0,30.04,SSE,157,0.0,0.0,98,0.00,,,0.00,Wunderground v.1.15,2013-06-21 08:55:00,
2013-06-21 05:00:00,70.4,69.8,30.04,SSE,157,0.0,0.0,98,0.00,,,0.00,Wunderground v.1.15,2013-06-21 09:00:00,
2013-06-21 05:10:00,70.3,69.7,30.05,SSE,157,0.0,0.0,98,0.00,,,0.00,Wunderground v.1.15,2013-06-21 09:10:00,
2013-06-21 05:15:00,70.3,69.7,30.04,SSE,157,0.0,0.0,98,0.00,,,0.00,Wunderground v.1.15,2013-06-21 09:15:00,
2013-06-21 05:25:00,70.2,69.6,30.05,SSE,157,0.0,0.0,98,0.00,,,0.00,Wunderground v.1.15,2013-06-21 09:25:00,
2013-06-21 05:30:00,70.2,69.6,30.05,SSE,157,0.0,0.0,98,0.00,,,0.00,Wunderground v.1.15,2013-06-21 09:30:00,
2013-06-21 05:35:00,70.2,69.6,30.05,SSE,157,0.0,0.0,98,0.00,,,0.00,Wunderground v.1.15,2013-06-21 09:35:00,
2013-06-21 05:45:00,70.2,69.6,30.05,SSE,157,0.0,0.0,98,0.00,,,0.00,Wunderground v.1.15,2013-06-21 09:45:00,
2013-06-21 05:50:00,70.0,69.4,30.05,SSE,157,0.0,0.0,98,0.00,,,0.00,Wunderground v.1.15,2013-06-21 09:50:00,
2013-06-21 05:55:00,70.0,69.4,30.05,SSE,157,0.0,0.0,98,0.00,,,0.00,Wunderground v.1.15,2013-06-21 09:55:00,
2013-06-21 06:05:00,69.9,69.3,30.06,SSE,157,0.0,0.0,98,0.00,,,0.00,Wunderground v.1.15,2013-06-21 10:05:00,
2013-06-21 06:15:00,70.0,69.4,30.06,SSE,157,0.0,0.0,98,0.00,,,0.00,Wunderground v.1.15,2013-06-21 10:15:00,
2013-06-21 06:20:00,70.0,69.4,30.06,SSE,157,0.0,0.0,98,0.00,,,0.00,Wunderground v.1.15,2013-06-21 10:20:00,
2013-06-21 06:30:00,69.9,69.3,30.06,SSE,157,0.0,0.0,98,0.00,,,0.00,Wunderground v.1.15,2013-06-21 10:30:00,
2013-06-21 06:35:00,69.9,69.3,30.06,SSE,157,0.0,0.0,98,0.00,,,0.00,Wunderground v.1.15,2013-06-21 10:35:00,
2013-06-21 06:45:00,69.9,69.3,30.06,SSE,157,0.0,0.0,98,0.00,,,0.00,Wunderground v.1.15,2013-06-21 10:45:00,
2013-06-21 06:50:00,69.9,69.3,30.06,SSE,157,0.0,0.0,98,0.00,,,0.00,Wunderground v.1.15,2013-06-21 10:50:00,
2013-06-21 07:00:00,70.0,69.4,30.06,SSE,157,0.0,0.0,98,0.00,,,0.00,Wunderground v.1.15,2013-06-21 11:00:00,
2013-06-21 07:05:00,70.1,69.5,30.07,SSE,157,0.0,0.0,98,0.00,,,0.00,Wunderground v.1.15,2013-06-21 11:05:00,
2013-06-21 07:15:00,70.2,69.6,30.07,SSE,157,0.0,0.0,98,0.00,,,0.00,Wunderground v.1.15,2013-06-21 11:15:00,
2013-06-21 07:20:00,70.3,69.7,30.07,SSE,157,0.0,0.0,98,0.00,,,0.00,Wunderground v.1.15,2013-06-21 11:20:00,
2013-06-21 07:30:00,70.7,70.1,30.07,SSE,157,0.0,0.0,98,0.00,,,0.00,Wunderground v.1.15,2013-06-21 11:30:00,
2013-06-21 07:35:00,71.1,70.5,30.07,SSE,157,0.0,0.0,98,0.00,,,0.00,Wunderground v.1.15,2013-06-21 11:35:00,
2013-06-21 07:45:00,72.2,71.9,30.08,SSE,157,0.0,0.0,99,0.00,,,0.00,Wunderground v.1.15,2013-06-21 11:45:00,
2013-06-21 07:50:00,72.8,72.5,30.08,SSE,157,0.0,0.0,99,0.00,,,0.00,Wunderground v.1.15,2013-06-21 11:50:00,
2013-06-21 08:00:00,73.3,73.0,30.08,SSE,157,0.0,0.0,99,0.00,,,0.00,Wunderground v.1.15,2013-06-21 12:00:00,
2013-06-21 08:05:00,73.9,73.6,30.08,SSE,157,0.0,0.0,99,0.00,,,0.00,Wunderground v.1.15,2013-06-21 12:05:00,
2013-06-21 08:15:00,74.7,74.4,30.08,SSE,157,0.0,0.0,99,0.00,,,0.00,Wunderground v.1.15,2013-06-21 12:15:00,
2013-06-21 08:20:00,75.0,74.4,30.08,SSE,157,0.0,0.0,98,0.00,,,0.00,Wunderground v.1.15,2013-06-21 12:20:00,
2013-06-21 08:30:00,75.8,74.9,30.09,SSE,157,0.0,0.0,97,0.00,,,0.00,Wunderground v.1.15,2013-06-21 12:30:00,
2013-06-21 08:40:00,76.2,73.7,30.09,North,350,0.0,0.0,92,0.00,,,0.00,Wunderground v.1.15,2013-06-21 12:40:00,
2013-06-21 08:45:00,76.9,73.4,30.09,North,355,0.0,0.0,89,0.00,,,0.00,Wunderground v.1.15,2013-06-21 12:45:00,
2013-06-21 08:55:00,78.5,74.6,30.09,North,355,0.0,0.0,88,0.00,,,0.00,Wunderground v.1.15,2013-06-21 12:55:00,
2013-06-21 09:00:00,79.1,74.9,30.10,North,355,0.0,0.0,87,0.00,,,0.00,Wunderground v.1.15,2013-06-21 13:00:00,
2013-06-21 09:10:00,80.2,74.6,30.10,NE,51,0.0,0.0,83,0.00,,,0.00,Wunderground v.1.15,2013-06-21 13:10:00,
2013-06-21 09:15:00,80.6,74.6,30.10,ENE,75,0.0,0.0,82,0.00,,,0.00,Wunderground v.1.15,2013-06-21 13:15:00,
2013-06-21 09:25:00,81.0,73.5,30.10,SSE,155,0.0,0.0,78,0.00,,,0.00,Wunderground v.1.15,2013-06-21 13:25:00,
2013-06-21 09:30:00,81.0,73.1,30.11,SSE,153,1.0,2.0,77,0.00,,,0.00,Wunderground v.1.15,2013-06-21 13:30:00,
2013-06-21 09:40:00,81.1,74.3,30.11,SSE,153,0.0,0.0,80,0.00,,,0.00,Wunderground v.1.15,2013-06-21 13:40:00,
2013-06-21 09:45:00,81.0,74.2,30.11,SSE,153,0.0,0.0,80,0.00,,,0.00,Wunderground v.1.15,2013-06-21 13:45:00,
2013-06-21 09:55:00,81.0,73.1,30.11,East,93,0.0,0.0,77,0.00,,,0.00,Wunderground v.1.15,2013-06-21 13:55:00,
2013-06-21 10:00:00,81.2,74.4,30.11,South,171,0.0,0.0,80,0.00,,,0.00,Wunderground v.1.15,2013-06-21 14:00:00,
2013-06-21 10:10:00,81.5,74.4,30.11,East,81,0.0,0.0,79,0.00,,,0.00,Wunderground v.1.15,2013-06-21 14:10:00,
2013-06-21 10:20:00,82.3,74.0,30.11,ENE,75,0.0,0.0,76,0.00,,,0.00,Wunderground v.1.15,2013-06-21 14:20:00,
2013-06-21 10:30:00,82.3,74.7,30.11,ENE,58,0.0,1.0,78,0.00,,,0.00,Wunderground v.1.15,2013-06-21 14:30:00,
2013-06-21 10:35:00,82.5,74.9,30.11,NNE,30,0.0,1.0,78,0.00,,,0.00,Wunderground v.1.15,2013-06-21 14:35:00,
2013-06-21 10:45:00,82.9,74.6,30.11,ESE,119,1.0,2.0,76,0.00,,,0.00,Wunderground v.1.15,2013-06-21 14:45:00,
2013-06-21 10:50:00,83.6,74.8,30.11,SE,142,1.0,2.0,75,0.00,,,0.00,Wunderground v.1.15,2013-06-21 14:50:00,
2013-06-21 11:00:00,84.3,74.7,30.12,SE,138,1.0,1.0,73,0.00,,,0.00,Wunderground v.1.15,2013-06-21 15:00:00,
2013-06-21 11:05:00,84.7,74.7,30.12,NE,50,1.0,1.0,72,0.00,,,0.00,Wunderground v.1.15,2013-06-21 15:05:00,
2013-06-21 11:15:00,84.7,74.3,30.12,ESE,103,1.0,1.0,71,0.00,,,0.00,Wunderground v.1.15,2013-06-21 15:15:00,
2013-06-21 11:25:00,84.9,74.9,30.11,South,190,1.0,2.0,72,0.00,,,0.00,Wunderground v.1.15,2013-06-21 15:25:00,
2013-06-21 11:35:00,86.3,74.9,30.11,South,186,1.0,2.0,69,0.00,,,0.00,Wunderground v.1.15,2013-06-21 15:35:00,
2013-06-21 11:40:00,86.5,75.5,30.11,SE,127,1.0,1.0,70,0.00,,,0.00,Wunderground v.1.15,2013-06-21 15:40:00,
2013-06-21 11:50:00,87.1,73.9,30.11,SSE,166,1.0,1.0,65,0.00,,,0.00,Wunderground v.1.15,2013-06-21 15:50:00,
2013-06-21 12:00:00,85.8,73.6,30.11,North,349,1.0,1.0,67,0.00,,,0.00,Wunderground v.1.15,2013-06-21 16:00:00,
2013-06-21 12:05:00,85.1,73.8,30.10,NNW,348,1.0,1.0,69,0.00,,,0.00,Wunderground v.1.15,2013-06-21 16:05:00,
2013-06-21 12:15:00,86.3,74.0,30.11,East,95,2.0,2.0,67,0.00,,,0.00,Wunderground v.1.15,2013-06-21 16:15:00,
2013-06-21 12:25:00,86.7,75.3,30.10,West,261,1.0,2.0,69,0.00,,,0.00,Wunderground v.1.15,2013-06-21 16:25:00,
2013-06-21 12:30:00,87.6,74.4,30.10,East,86,1.0,1.0,65,0.00,,,0.00,Wunderground v.1.15,2013-06-21 16:30:00,
2013-06-21 12:40:00,87.1,74.4,30.10,ENE,61,1.0,1.0,66,0.00,,,0.00,Wunderground v.1.15,2013-06-21 16:40:00,
2013-06-21 12:50:00,87.2,73.5,30.09,SE,139,2.0,2.0,64,0.00,,,0.00,Wunderground v.1.15,2013-06-21 16:50:00,
2013-06-21 12:55:00,87.4,74.2,30.09,ESE,123,2.0,2.0,65,0.00,,,0.00,Wunderground v.1.15,2013-06-21 16:55:00,
2013-06-21 13:00:00,87.9,74.2,30.09,East,92,1.0,1.0,64,0.00,,,0.00,Wunderground v.1.15,2013-06-21 17:00:00,
2013-06-21 13:20:00,87.6,74.4,30.08,North,355,1.0,1.0,65,0.00,,,0.00,Wunderground v.1.15,2013-06-21 17:20:00,
2013-06-21 13:30:00,88.2,73.5,30.08,SE,138,1.0,1.0,62,0.00,,,0.00,Wunderground v.1.15,2013-06-21 17:30:00,
2013-06-21 13:35:00,88.3,74.1,30.09,South,177,1.0,1.0,63,0.00,,,0.00,Wunderground v.1.15,2013-06-21 17:35:00,
2013-06-21 13:50:00,87.6,75.3,30.08,NNW,332,1.0,2.0,67,0.00,,,0.00,Wunderground v.1.15,2013-06-21 17:50:00,
2013-06-21 13:55:00,87.2,74.5,30.08,NE,37,2.0,2.0,66,0.00,,,0.00,Wunderground v.1.15,2013-06-21 17:55:00,
2013-06-21 14:00:00,87.3,74.5,30.08,NE,41,2.0,2.0,66,0.00,,,0.00,Wunderground v.1.15,2013-06-21 18:00:00,
2013-06-21 14:05:00,87.6,74.8,30.08,SSW,200,1.0,2.0,66,0.00,,,0.00,Wunderground v.1.15,2013-06-21 18:05:00,
2013-06-21 14:10:00,88.3,75.5,30.07,North,5,1.0,1.0,66,0.00,,,0.00,Wunderground v.1.15,2013-06-21 18:10:00,
2013-06-21 14:15:00,88.4,75.1,30.07,NE,46,1.0,1.0,65,0.00,,,0.00,Wunderground v.1.15,2013-06-21 18:15:00,
2013-06-21 14:25:00,89.1,74.4,30.06,WSW,246,1.0,1.0,62,0.00,,,0.00,Wunderground v.1.15,2013-06-21 18:25:00,
2013-06-21 14:30:00,89.1,74.4,30.06,NW,306,1.0,3.0,62,0.00,,,0.00,Wunderground v.1.15,2013-06-21 18:30:00,
2013-06-21 14:40:00,88.1,74.8,30.06,NE,40,0.0,2.0,65,0.00,,,0.00,Wunderground v.1.15,2013-06-21 18:40:00,
2013-06-21 14:45:00,87.9,74.7,30.05,ESE,116,0.0,2.0,65,0.00,,,0.00,Wunderground v.1.15,2013-06-21 18:45:00,
2013-06-21 14:50:00,87.8,75.0,30.05,NNE,13,1.0,1.0,66,0.00,,,0.00,Wunderground v.1.15,2013-06-21 18:50:00,
2013-06-21 15:00:00,88.3,75.0,30.05,East,95,0.0,3.0,65,0.00,,,0.00,Wunderground v.1.15,2013-06-21 19:00:00,
2013-06-21 15:05:00,88.6,74.9,30.06,East,81,1.0,3.0,64,0.00,,,0.00,Wunderground v.1.15,2013-06-21 19:05:00,
2013-06-21 15:10:00,88.4,74.7,30.06,SSW,200,1.0,1.0,64,0.00,,,0.00,Wunderground v.1.15,2013-06-21 19:10:00,
2013-06-21 15:15:00,88.3,75.0,30.06,East,86,0.0,1.0,65,0.00,,,0.00,Wunderground v.1.15,2013-06-21 19:15:00,
2013-06-21 15:25:00,87.9,74.7,30.06,ENE,59,0.0,0.0,65,0.00,,,0.00,Wunderground v.1.15,2013-06-21 19:25:00,
2013-06-21 15:30:00,87.9,74.7,30.06,ESE,111,0.0,0.0,65,0.00,,,0.00,Wunderground v.1.15,2013-06-21 19:30:00,
2013-06-21 15:35:00,87.6,75.3,30.06,North,9,0.0,0.0,67,0.00,,,0.00,Wunderground v.1.15,2013-06-21 19:35:00,
2013-06-21 15:45:00,87.5,75.6,30.06,NE,49,0.0,1.0,68,0.00,,,0.00,Wunderground v.1.15,2013-06-21 19:45:00,
2013-06-21 15:50:00,87.6,74.4,30.07,SSW,205,1.0,4.0,65,0.00,,,0.00,Wunderground v.1.15,2013-06-21 19:50:00,
2013-06-21 15:55:00,85.7,73.9,30.06,SW,221,3.0,4.0,68,0.00,,,0.00,Wunderground v.1.15,2013-06-21 19:55:00,
2013-06-21 16:00:00,83.8,73.8,30.07,SSE,159,4.0,4.0,72,0.00,,,0.00,Wunderground v.1.15,2013-06-21 20:00:00,
2013-06-21 16:10:00,78.1,73.2,30.08,SW,217,4.0,7.0,85,0.83,,,0.11,Wunderground v.1.15,2013-06-21 20:10:00,
2013-06-21 16:15:00,75.9,72.1,30.10,WSW,258,5.0,7.0,88,1.33,,,0.24,Wunderground v.1.15,2013-06-21 20:15:00,
2013-06-21 16:25:00,73.3,71.2,30.07,WNW,302,4.0,4.0,93,1.83,,,0.71,Wunderground v.1.15,2013-06-21 20:25:00,
2013-06-21 16:35:00,72.1,70.0,30.05,West,263,2.0,3.0,93,0.27,,,0.81,Wunderground v.1.15,2013-06-21 20:35:00,
2013-06-21 16:45:00,71.9,70.4,30.07,West,263,0.0,1.0,95,0.11,,,0.83,Wunderground v.1.15,2013-06-21 20:45:00,
2013-06-21 16:55:00,72.5,71.3,30.10,South,180,0.0,1.0,96,0.12,,,0.86,Wunderground v.1.15,2013-06-21 20:55:00,
2013-06-21 17:00:00,72.2,71.0,30.09,NNE,20,1.0,1.0,96,0.11,,,0.87,Wunderground v.1.15,2013-06-21 21:00:00,
2013-06-21 17:05:00,72.2,70.7,30.09,NNE,33,1.0,1.0,95,0.11,,,0.87,Wunderground v.1.15,2013-06-21 21:05:00,
2013-06-21 17:15:00,72.6,71.4,30.09,NNE,13,0.0,2.0,96,0.07,,,0.88,Wunderground v.1.15,2013-06-21 21:15:00,
2013-06-21 17:20:00,72.9,71.7,30.10,SE,124,0.0,0.0,96,0.05,,,0.88,Wunderground v.1.15,2013-06-21 21:20:00,
2013-06-21 17:25:00,73.2,72.3,30.10,SE,124,0.0,0.0,97,0.04,,,0.88,Wunderground v.1.15,2013-06-21 21:25:00,
2013-06-21 17:30:00,73.4,72.5,30.10,SE,124,0.0,0.0,97,0.00,,,0.88,Wunderground v.1.15,2013-06-21 21:30:00,
2013-06-21 17:40:00,73.3,72.4,30.11,NE,49,0.0,0.0,97,0.00,,,0.89,Wunderground v.1.15,2013-06-21 21:40:00,
2013-06-21 17:50:00,73.0,71.8,30.12,NE,49,0.0,0.0,96,0.00,,,0.89,Wunderground v.1.15,2013-06-21 21:50:00,
2013-06-21 17:55:00,72.9,71.7,30.12,NE,49,0.0,0.0,96,0.00,,,0.89,Wunderground v.1.15,2013-06-21 21:55:00,
2013-06-21 18:00:00,73.0,72.1,30.11,NE,49,0.0,0.0,97,0.00,,,0.90,Wunderground v.1.15,2013-06-21 22:00:00,
2013-06-21 18:10:00,72.7,71.5,30.11,North,355,0.0,0.0,96,0.00,,,0.90,Wunderground v.1.15,2013-06-21 22:10:00,
2013-06-21 18:20:00,72.1,70.9,30.10,North,355,0.0,0.0,96,0.00,,,0.90,Wunderground v.1.15,2013-06-21 22:20:00,
2013-06-21 18:25:00,72.1,70.9,30.10,North,355,0.0,0.0,96,0.00,,,0.90,Wunderground v.1.15,2013-06-21 22:25:00,
2013-06-21 18:35:00,72.0,70.8,30.10,North,355,0.0,0.0,96,0.00,,,0.90,Wunderground v.1.15,2013-06-21 22:35:00,
2013-06-21 18:45:00,72.2,71.3,30.08,North,355,0.0,1.0,97,0.00,,,0.90,Wunderground v.1.15,2013-06-21 22:45:00,
2013-06-21 18:50:00,72.2,71.3,30.08,North,355,0.0,0.0,97,0.00,,,0.90,Wunderground v.1.15,2013-06-21 22:50:00,
2013-06-21 19:00:00,72.1,71.2,30.08,North,355,0.0,0.0,97,0.00,,,0.90,Wunderground v.1.15,2013-06-21 23:00:00,
2013-06-21 19:10:00,72.1,71.2,30.09,North,355,0.0,0.0,97,0.00,,,0.90,Wunderground v.1.15,2013-06-21 23:10:00,
2013-06-21 19:20:00,72.2,71.3,30.09,North,360,0.0,0.0,97,0.00,,,0.90,Wunderground v.1.15,2013-06-21 23:20:00,
2013-06-21 19:30:00,72.4,71.5,30.10,North,360,0.0,0.0,97,0.00,,,0.90,Wunderground v.1.15,2013-06-21 23:30:00,
2013-06-21 19:35:00,72.3,71.4,30.10,North,360,0.0,0.0,97,0.00,,,0.90,Wunderground v.1.15,2013-06-21 23:35:00,
2013-06-21 19:40:00,72.2,71.3,30.10,North,360,0.0,0.0,97,0.00,,,0.90,Wunderground v.1.15,2013-06-21 23:40:00,
2013-06-21 19:50:00,72.1,71.2,30.10,North,360,0.0,0.0,97,0.00,,,0.90,Wunderground v.1.15,2013-06-21 23:50:00,
2013-06-21 19:55:00,72.1,71.2,30.10,North,360,0.0,0.0,97,0.00,,,0.90,Wunderground v.1.15,2013-06-21 23:55:00,
2013-06-21 20:05:00,72.0,71.1,30.10,North,360,0.0,0.0,97,0.00,,,0.90,Wunderground v.1.15,2013-06-22 00:05:00,
2013-06-21 20:10:00,72.2,71.3,30.10,North,360,0.0,0.0,97,0.00,,,0.90,Wunderground v.1.15,2013-06-22 00:10:00,
2013-06-21 20:15:00,72.3,71.4,30.10,North,360,0.0,0.0,97,0.00,,,0.90,Wunderground v.1.15,2013-06-22 00:15:00,
2013-06-21 20:25:00,72.4,71.8,30.09,North,360,0.0,0.0,98,0.00,,,0.90,Wunderground v.1.15,2013-06-22 00:25:00,
2013-06-21 20:35:00,72.2,71.3,30.09,North,360,0.0,0.0,97,0.00,,,0.90,Wunderground v.1.15,2013-06-22 00:35:00,
2013-06-21 20:40:00,72.2,71.3,30.09,North,360,0.0,0.0,97,0.00,,,0.90,Wunderground v.1.15,2013-06-22 00:40:00,
2013-06-21 20:45:00,72.1,71.2,30.09,North,360,0.0,0.0,97,0.00,,,0.90,Wunderground v.1.15,2013-06-22 00:45:00,
2013-06-21 20:55:00,71.9,71.0,30.09,North,360,0.0,0.0,97,0.00,,,0.90,Wunderground v.1.15,2013-06-22 00:55:00,
2013-06-21 21:00:00,71.7,70.8,30.09,North,360,0.0,0.0,97,0.00,,,0.90,Wunderground v.1.15,2013-06-22 01:00:00,
2013-06-21 21:05:00,71.6,70.7,30.08,North,360,0.0,0.0,97,0.00,,,0.90,Wunderground v.1.15,2013-06-22 01:05:00,
2013-06-21 21:15:00,71.5,70.6,30.08,North,360,0.0,0.0,97,0.00,,,0.90,Wunderground v.1.15,2013-06-22 01:15:00,
2013-06-21 21:20:00,71.3,70.4,30.08,North,360,0.0,0.0,97,0.00,,,0.90,Wunderground v.1.15,2013-06-22 01:20:00,
2013-06-21 21:30:00,71.2,70.3,30.09,North,360,0.0,0.0,97,0.00,,,0.90,Wunderground v.1.15,2013-06-22 01:30:00,
2013-06-21 21:35:00,71.1,70.2,30.09,North,360,0.0,0.0,97,0.00,,,0.90,Wunderground v.1.15,2013-06-22 01:35:00,
2013-06-21 21:45:00,70.9,70.0,30.09,North,360,0.0,0.0,97,0.00,,,0.90,Wunderground v.1.15,2013-06-22 01:45:00,
2013-06-21 21:50:00,70.9,70.0,30.09,North,360,0.0,0.0,97,0.00,,,0.90,Wunderground v.1.15,2013-06-22 01:50:00,
2013-06-21 21:55:00,70.9,70.0,30.09,North,360,0.0,0.0,97,0.00,,,0.90,Wunderground v.1.15,2013-06-22 01:55:00,
2013-06-21 22:05:00,71.0,70.1,30.10,North,360,0.0,0.0,97,0.00,,,0.90,Wunderground v.1.15,2013-06-22 02:05:00,
2013-06-21 22:10:00,71.0,70.1,30.10,North,360,0.0,0.0,97,0.00,,,0.90,Wunderground v.1.15,2013-06-22 02:10:00,
2013-06-21 22:20:00,70.9,70.0,30.11,North,360,0.0,0.0,97,0.00,,,0.90,Wunderground v.1.15,2013-06-22 02:20:00,
2013-06-21 22:30:00,70.9,70.0,30.10,North,360,0.0,0.0,97,0.00,,,0.90,Wunderground v.1.15,2013-06-22 02:30:00,
2013-06-21 22:35:00,70.8,69.9,30.10,North,360,0.0,0.0,97,0.00,,,0.90,Wunderground v.1.15,2013-06-22 02:35:00,
2013-06-21 22:45:00,70.7,69.8,30.10,North,360,0.0,0.0,97,0.00,,,0.90,Wunderground v.1.15,2013-06-22 02:45:00,
2013-06-21 22:50:00,70.7,69.8,30.10,North,360,0.0,0.0,97,0.00,,,0.90,Wunderground v.1.15,2013-06-22 02:50:00,
2013-06-21 23:00:00,70.7,70.1,30.10,North,360,0.0,0.0,98,0.00,,,0.90,Wunderground v.1.15,2013-06-22 03:00:00,
2013-06-21 23:05:00,70.7,70.1,30.10,North,360,0.0,0.0,98,0.00,,,0.90,Wunderground v.1.15,2013-06-22 03:05:00,
2013-06-21 23:15:00,70.7,70.1,30.10,North,360,0.0,0.0,98,0.00,,,0.90,Wunderground v.1.15,2013-06-22 03:15:00,
2013-06-21 23:20:00,70.7,70.1,30.10,North,360,0.0,0.0,98,0.00,,,0.90,Wunderground v.1.15,2013-06-22 03:20:00,
2013-06-21 23:30:00,70.7,70.1,30.10,North,360,0.0,0.0,98,0.00,,,0.90,Wunderground v.1.15,2013-06-22 03:30:00,
2013-06-21 23:35:00,70.6,70.0,30.10,North,360,0.0,0.0,98,0.00,,,0.91,Wunderground v.1.15,2013-06-22 03:35:00,
2013-06-21 23:45:00,70.6,70.0,30.10,North,360,0.0,0.0,98,0.00,,,0.91,Wunderground v.1.15,2013-06-22 03:45:00,
2013-06-21 23:55:00,70.5,69.9,30.10,North,360,0.0,0.0,98,0.00,,,0.91,Wunderground v.1.15,2013-06-22 03:55:00,